Погода в Чолпон-Ате

Киргизия     42°38′59″N   77°05′08″E
темп.,
°C
ветер,
м/с
пор.,
м/с
влажн.,
%
обл.,
%
осадки,
мм/ч
давл.,
гПа
погр.,
м
23 апреля, пт
пт2300:00−10с433922 0.0 1036176
03:00−10с33369 0.0 1035168
06:00−10с33321 0.0 103441
09:00−6зюз13408 0.0 1030516
12:00−3зюз15405 0.0 10271303
15:00−2зсз25410 0.0 10251372
18:00−3ссз345016 0.0 1026665
21:00−7с43500 0.0 103161
24 апреля, сб
сб2400:00−7ссз323965 0.0 103058
03:00−7ссз3235100 0.0 102841
06:00−7с33304 0.0 102829
09:00−2юз12350 0.0 1024437
12:000юз13375 0.0 1022777
15:00+2зюз1433100 0.0 10211018
18:00+1зсз1341100 0.0 1022328
21:00−2с333587 0.0 102629
25 апреля, вс
вс2500:00−2ссз3330100 0.0 102528
03:00−1сз224486 0.0 102451
06:00−3ссз435018 0.1 102630
09:00+2зсз134762 0.0 1025734
12:00+4зюз245025 0.0 10241356
15:00+5з25425 0.0 10231484
18:00+4ссз3450100 0.0 1024438
21:00+2с4461100 0.0 1026110
26 апреля, пн
пн2600:00+1с4460100 0.0 102649
03:00−1с435916 0.0 102635
06:00−1с435892 0.0 102734
09:00+2ююз115274 0.0 1026520
12:00+5зюз14474 0.0 10251390
15:00+6з13463 0.0 10241268
18:00+6сз1249100 0.0 1024626
21:00+2с32611 0.0 102732
27 апреля, вт
вт2700:00+1с225133 0.0 102816
03:00+1с22535 0.0 102611
06:000с214523 0.0 102611
09:00+5ю11425 0.0 1025253
12:00+8ю32441 0.0 1023564
15:00+10ю32371 0.0 1021757
18:00+9ююв21390 0.0 1022381
21:00+5всв11530 0.0 102310